AVA8401 SKCL-SKPS

Flight info

Callsign AVA8401
Flight time 0h 42m
Altitude 26000
Route CLO1D DAKOP DCT PAKEX PAKEX1A
Aircraft A320/M-SDE3FGHIRWY/LB1

Departure

Time 2026-04-25 14:35
Airport Alfonso Bonilla Aragon International Airport (SKCL)

Arrival

Time 2026-04-25 15:17
Airport Antonio Nariño Airport (SKPS)
Time Latitude Longitude Altitude Speed Heading
2026-04-25 13:51 3.53852 -76.38791 3165 ft 0 kts 145°
2026-04-25 13:52 3.53853 -76.38793 3165 ft 0 kts 145°
2026-04-25 13:52 3.53854 -76.38793 3165 ft 0 kts 145°
2026-04-25 14:15 3.53855 -76.38793 3164 ft 0 kts 145°
2026-04-25 14:15 3.53854 -76.38793 3164 ft 0 kts 145°
2026-04-25 14:15 3.53855 -76.38793 3164 ft 0 kts 145°
2026-04-25 14:16 3.53854 -76.38793 3164 ft 0 kts 145°
2026-04-25 14:17 3.53855 -76.38793 3164 ft 0 kts 145°
2026-04-25 14:24 3.53864 -76.38800 3164 ft 2 kts 145°
2026-04-25 14:24 3.53877 -76.38809 3164 ft 2 kts 145°
2026-04-25 14:24 3.53889 -76.38818 3164 ft 2 kts 145°
2026-04-25 14:24 3.53900 -76.38825 3164 ft 0 kts 145°
2026-04-25 14:28 3.53879 -76.38798 3166 ft 14 kts 104°
2026-04-25 14:29 3.53908 -76.38699 3165 ft 17 kts 83°
2026-04-25 14:29 3.53835 -76.38610 3164 ft 19 kts 144°
2026-04-25 14:29 3.53710 -76.38538 3164 ft 23 kts 151°
2026-04-25 14:29 3.53555 -76.38465 3163 ft 26 kts 163°
2026-04-25 14:30 3.53487 -76.38474 3163 ft 10 kts 184°
2026-04-25 14:30 3.53350 -76.38497 3163 ft 14 kts 190°
2026-04-25 14:30 3.53239 -76.38519 3163 ft 18 kts 192°
2026-04-25 14:31 3.53103 -76.38546 3162 ft 22 kts 192°
2026-04-25 14:31 3.53005 -76.38551 3161 ft 11 kts 138°
2026-04-25 14:31 3.52985 -76.38513 3161 ft 0 kts 107°
2026-04-25 14:33 3.52978 -76.38490 3161 ft 11 kts 107°
2026-04-25 14:34 3.53010 -76.38424 3160 ft 11 kts 37°
2026-04-25 14:34 3.53082 -76.38386 3159 ft 12 kts 13°
2026-04-25 14:34 3.53185 -76.38365 3160 ft 26 kts 12°
2026-04-25 14:34 3.53618 -76.38296 3164 ft 97 kts
2026-04-25 14:35 3.54484 -76.38147 3167 ft 153 kts 11°
2026-04-25 14:35 3.55630 -76.37936 3528 ft 166 kts 12°
2026-04-25 14:35 3.56811 -76.37589 3886 ft 185 kts 16°
2026-04-25 14:35 3.58082 -76.37340 4594 ft 188 kts
2026-04-25 14:36 3.59389 -76.37111 4997 ft 196 kts 19°
2026-04-25 14:36 3.60753 -76.36814 5381 ft 200 kts
2026-04-25 14:36 3.62088 -76.36605 6024 ft 191 kts 14°
2026-04-25 14:36 3.63390 -76.36283 6374 ft 199 kts
2026-04-25 14:37 3.64828 -76.36221 6533 ft 217 kts 358°
2026-04-25 14:37 3.66368 -76.36171 6893 ft 222 kts
2026-04-25 14:37 3.67906 -76.35859 7232 ft 233 kts 16°
2026-04-25 14:37 3.69525 -76.35466 7613 ft 244 kts 11°
2026-04-25 14:38 3.71225 -76.35357 8098 ft 249 kts 348°
2026-04-25 14:38 3.72846 -76.36068 8351 ft 265 kts 321°
2026-04-25 14:38 3.74109 -76.37472 8671 ft 281 kts 302°
2026-04-25 14:38 3.75116 -76.39250 8688 ft 309 kts 297°
2026-04-25 14:39 3.75803 -76.41411 8346 ft 345 kts 271°
2026-04-25 14:39 3.75024 -76.43628 9046 ft 335 kts 233°
2026-04-25 14:39 3.73203 -76.44943 10152 ft 319 kts 197°
2026-04-25 14:39 3.71065 -76.45009 11182 ft 303 kts 164°
2026-04-25 14:40 3.69336 -76.43956 12270 ft 288 kts 133°
2026-04-25 14:40 3.67934 -76.42535 12982 ft 287 kts 138°
2026-04-25 14:40 3.66380 -76.41118 12779 ft 321 kts 134°
2026-04-25 14:40 3.64836 -76.39338 12334 ft 356 kts 145°
2026-04-25 14:41 3.62556 -76.38644 12990 ft 348 kts 182°
2026-04-25 14:41 3.60169 -76.39142 13252 ft 358 kts 200°
2026-04-25 14:41 3.57826 -76.39982 13929 ft 354 kts 204°
2026-04-25 14:41 3.55497 -76.40737 14566 ft 351 kts 193°
2026-04-25 14:42 3.53001 -76.41114 14468 ft 371 kts 184°
2026-04-25 14:42 3.51282 -76.41305 15015 ft 363 kts 185°
2026-04-25 14:42 3.47921 -76.41250 15412 ft 375 kts 181°
2026-04-25 14:42 3.45189 -76.41302 14941 ft 405 kts 178°
2026-04-25 14:43 3.42331 -76.41187 15073 ft 414 kts 179°
2026-04-25 14:43 3.39435 -76.41361 15426 ft 412 kts 192°
2026-04-25 14:43 3.36690 -76.42073 16147 ft 405 kts 199°
2026-04-25 14:43 3.34059 -76.43025 16748 ft 402 kts 202°
2026-04-25 14:44 3.31492 -76.44202 16948 ft 410 kts 206°
2026-04-25 14:44 3.28973 -76.45564 17261 ft 414 kts 210°
2026-04-25 14:44 3.26408 -76.47023 17046 ft 430 kts 211°
2026-04-25 14:44 3.23723 -76.48404 17161 ft 437 kts 206°
2026-04-25 14:45 3.20956 -76.49737 17232 ft 444 kts 206°
2026-04-25 14:45 3.18157 -76.51027 17389 ft 447 kts 203°
2026-04-25 14:45 3.15327 -76.52272 17933 ft 440 kts 205°
2026-04-25 14:45 3.12639 -76.53556 19002 ft 419 kts 209°
2026-04-25 14:46 3.10062 -76.54791 19993 ft 401 kts 206°
2026-04-25 14:46 3.07539 -76.55873 20751 ft 395 kts 205°
2026-04-25 14:46 3.04990 -76.56996 20817 ft 407 kts 205°
2026-04-25 14:46 3.02373 -76.58158 20923 ft 417 kts 204°
2026-04-25 14:47 2.99692 -76.59356 21046 ft 426 kts 205°
2026-04-25 14:47 2.97893 -76.60170 21130 ft 432 kts 205°
2026-04-25 14:47 2.94200 -76.61863 21317 ft 441 kts 205°
2026-04-25 14:47 2.91399 -76.63160 21446 ft 447 kts 205°
2026-04-25 14:48 2.88560 -76.64479 21366 ft 452 kts 205°
2026-04-25 14:48 2.85712 -76.65800 21139 ft 451 kts 205°
2026-04-25 14:48 2.82875 -76.67115 21089 ft 449 kts 205°
2026-04-25 14:48 2.80034 -76.68428 21106 ft 450 kts 205°
2026-04-25 14:49 2.77191 -76.69738 21113 ft 450 kts 205°
2026-04-25 14:49 2.74343 -76.71050 21128 ft 450 kts 205°
2026-04-25 14:49 2.71502 -76.72361 21143 ft 450 kts 205°
2026-04-25 14:49 2.68712 -76.73649 21151 ft 450 kts 205°
2026-04-25 14:50 2.65837 -76.74979 21159 ft 450 kts 205°
2026-04-25 14:50 2.62999 -76.76293 21167 ft 450 kts 205°
2026-04-25 14:50 2.60155 -76.77610 21173 ft 450 kts 205°
2026-04-25 14:50 2.57314 -76.78926 21179 ft 450 kts 205°
2026-04-25 14:51 2.54473 -76.80241 21179 ft 450 kts 205°
2026-04-25 14:51 2.51635 -76.81555 21177 ft 450 kts 205°
2026-04-25 14:51 2.48791 -76.82869 21174 ft 450 kts 205°
2026-04-25 14:51 2.45943 -76.84180 21166 ft 450 kts 205°
2026-04-25 14:52 2.43099 -76.85489 21156 ft 450 kts 205°
2026-04-25 14:52 2.40257 -76.86801 21147 ft 450 kts 205°
2026-04-25 14:52 2.37410 -76.88115 21135 ft 450 kts 205°
2026-04-25 14:52 2.35527 -76.88984 21130 ft 450 kts 205°
2026-04-25 14:53 2.31727 -76.90734 21111 ft 450 kts 205°
2026-04-25 14:53 2.28881 -76.92047 21095 ft 450 kts 205°
2026-04-25 14:53 2.26041 -76.93361 21092 ft 450 kts 205°
2026-04-25 14:53 2.23199 -76.94674 21090 ft 450 kts 205°
2026-04-25 14:54 2.20357 -76.95985 21088 ft 450 kts 205°
2026-04-25 14:54 2.17512 -76.97298 21085 ft 450 kts 205°
2026-04-25 14:54 2.14673 -76.98610 21087 ft 450 kts 205°
2026-04-25 14:54 2.11831 -76.99924 21085 ft 450 kts 205°
2026-04-25 14:55 2.08990 -77.01237 21088 ft 450 kts 205°
2026-04-25 14:55 2.06150 -77.02549 21085 ft 450 kts 205°
2026-04-25 14:55 2.03307 -77.03863 20668 ft 451 kts 205°
2026-04-25 14:55 2.00447 -77.05186 19880 ft 451 kts 205°
2026-04-25 14:56 1.97636 -77.06482 19524 ft 440 kts 205°
2026-04-25 14:56 1.94880 -77.07750 19015 ft 434 kts 205°
2026-04-25 14:56 1.92154 -77.09004 18487 ft 429 kts 205°
2026-04-25 14:56 1.89452 -77.10248 17913 ft 425 kts 205°
2026-04-25 14:57 1.86783 -77.11481 17326 ft 421 kts 206°
2026-04-25 14:57 1.84140 -77.12702 16785 ft 417 kts 206°
2026-04-25 14:57 1.81521 -77.13911 16263 ft 413 kts 205°
2026-04-25 14:57 1.78927 -77.15111 15755 ft 408 kts 207°
2026-04-25 14:58 1.76590 -77.16668 15273 ft 402 kts 224°
2026-04-25 14:58 1.74887 -77.18847 14797 ft 397 kts 241°
2026-04-25 14:58 1.73897 -77.21394 14315 ft 393 kts 258°
2026-04-25 14:58 1.73662 -77.24059 14187 ft 379 kts 272°
2026-04-25 14:59 1.74093 -77.26604 14064 ft 366 kts 287°
2026-04-25 14:59 1.75132 -77.28873 13940 ft 354 kts 302°
2026-04-25 14:59 1.76671 -77.30739 13818 ft 344 kts 316°
2026-04-25 14:59 1.78573 -77.32121 13678 ft 334 kts 330°
2026-04-25 15:00 1.80716 -77.32986 13550 ft 324 kts 345°
2026-04-25 15:00 1.82880 -77.33311 13416 ft 315 kts 358°
2026-04-25 15:00 1.85037 -77.33146 13291 ft 308 kts 11°
2026-04-25 15:00 1.87061 -77.32537 13158 ft 300 kts 21°
2026-04-25 15:01 1.88950 -77.31717 13033 ft 292 kts 25°
2026-04-25 15:01 1.90739 -77.30821 12909 ft 284 kts 27°
2026-04-25 15:01 1.92485 -77.29901 12777 ft 276 kts 27°
2026-04-25 15:01 1.94139 -77.29023 12571 ft 271 kts 27°
2026-04-25 15:02 1.95805 -77.28149 12308 ft 269 kts 27°
2026-04-25 15:02 1.97485 -77.27280 12107 ft 268 kts 27°
2026-04-25 15:02 1.99064 -77.26301 12053 ft 267 kts 37°
2026-04-25 15:02 2.00452 -77.25058 12064 ft 268 kts 48°
2026-04-25 15:03 2.01574 -77.23574 12066 ft 268 kts 59°
2026-04-25 15:03 2.02385 -77.21899 12061 ft 268 kts 71°
2026-04-25 15:03 2.02855 -77.20100 12064 ft 268 kts 82°
2026-04-25 15:03 2.02972 -77.18248 12069 ft 267 kts 93°
2026-04-25 15:04 2.02733 -77.16416 12066 ft 266 kts 104°
2026-04-25 15:04 2.02151 -77.14666 12068 ft 265 kts 115°
2026-04-25 15:04 2.01246 -77.13065 12073 ft 265 kts 127°
2026-04-25 15:04 2.00051 -77.11673 12073 ft 264 kts 138°
2026-04-25 15:05 1.98622 -77.10531 12077 ft 263 kts 148°
2026-04-25 15:05 1.97012 -77.09681 12077 ft 262 kts 159°
2026-04-25 15:05 1.95272 -77.09155 12076 ft 261 kts 170°
2026-04-25 15:06 1.91669 -77.09123 12082 ft 260 kts 192°
2026-04-25 15:06 1.89852 -77.09634 12086 ft 285 kts 201°
2026-04-25 15:06 1.87966 -77.10430 12064 ft 301 kts 205°
2026-04-25 15:06 1.86070 -77.11359 11795 ft 302 kts 207°
2026-04-25 15:07 1.84217 -77.12328 11861 ft 301 kts 208°
2026-04-25 15:07 1.82984 -77.12983 11989 ft 304 kts 208°
2026-04-25 15:07 1.81107 -77.13972 12064 ft 305 kts 208°
2026-04-25 15:07 1.79224 -77.14953 12072 ft 305 kts 207°
2026-04-25 15:08 1.77342 -77.15934 12074 ft 305 kts 208°
2026-04-25 15:08 1.75467 -77.16936 11859 ft 305 kts 208°
2026-04-25 15:08 1.73607 -77.17941 11617 ft 303 kts 208°
2026-04-25 15:08 1.71752 -77.18945 11384 ft 302 kts 208°
2026-04-25 15:09 1.69902 -77.19942 11169 ft 302 kts 208°
2026-04-25 15:09 1.68054 -77.20934 10959 ft 301 kts 208°
2026-04-25 15:09 1.64395 -77.22894 10643 ft 293 kts 208°
2026-04-25 15:10 1.62632 -77.23839 10536 ft 282 kts 208°
2026-04-25 15:10 1.60925 -77.24751 10435 ft 276 kts 208°
2026-04-25 15:10 1.57558 -77.26548 10229 ft 273 kts 208°
2026-04-25 15:11 1.55886 -77.27442 10121 ft 272 kts 208°
2026-04-25 15:11 1.54219 -77.28333 10018 ft 272 kts 208°
2026-04-25 15:11 1.52552 -77.29225 9980 ft 269 kts 207°
2026-04-25 15:12 1.49396 -77.30829 10002 ft 240 kts 206°
2026-04-25 15:12 1.47937 -77.31556 9979 ft 232 kts 206°
2026-04-25 15:12 1.46491 -77.32274 9670 ft 232 kts 206°
2026-04-25 15:12 1.45513 -77.32759 9384 ft 233 kts 206°
2026-04-25 15:13 1.43585 -77.33715 8839 ft 231 kts 206°
2026-04-25 15:13 1.40948 -77.35034 8793 ft 193 kts 206°
2026-04-25 15:13 1.39809 -77.35604 8792 ft 175 kts 206°
2026-04-25 15:14 1.38743 -77.36139 8800 ft 169 kts 206°
2026-04-25 15:14 1.37637 -77.36504 8754 ft 167 kts 187°
2026-04-25 15:14 1.36438 -77.36480 8373 ft 177 kts 168°
2026-04-25 15:14 1.35359 -77.36038 8375 ft 168 kts 152°
2026-04-25 15:15 1.34442 -77.35244 8187 ft 178 kts 125°
2026-04-25 15:15 1.33937 -77.34136 7761 ft 182 kts 101°
2026-04-25 15:15 1.33874 -77.32885 7472 ft 176 kts 83°
2026-04-25 15:15 1.34184 -77.31725 7192 ft 174 kts 63°
2026-04-25 15:16 1.34881 -77.30770 6788 ft 165 kts 38°
2026-04-25 15:16 1.35821 -77.30174 6512 ft 154 kts 25°
2026-04-25 15:16 1.37871 -77.29639 6264 ft 147 kts 16°
2026-04-25 15:17 1.39809 -77.29065 5896 ft 120 kts 12°
2026-04-25 15:17 1.40467 -77.28894 5872 ft 67 kts 14°
2026-04-25 15:17 1.40628 -77.28836 5852 ft 9 kts 84°
2026-04-25 15:18 1.40595 -77.28830 5853 ft 8 kts 202°
2026-04-25 15:18 1.40348 -77.28914 5875 ft 19 kts 192°
2026-04-25 15:18 1.40228 -77.28943 5883 ft 17 kts 197°
2026-04-25 15:19 1.40126 -77.28973 5881 ft 15 kts 197°
2026-04-25 15:19 1.40045 -77.28994 5883 ft 22 kts 195°
2026-04-25 15:19 1.39825 -77.29056 5898 ft 24 kts 195°
2026-04-25 15:19 1.39690 -77.29077 5905 ft 11 kts 141°
2026-04-25 15:20 1.39664 -77.29032 5904 ft 2 kts 112°
2026-04-25 15:20 1.39643 -77.28998 5905 ft 13 kts 133°
2026-04-25 15:20 1.39614 -77.28982 5906 ft 1 kts 104°
2026-04-25 15:20 1.39612 -77.28978 5906 ft 0 kts 117°